Regional Weather Roundup
Issued by NWS New Orleans/Baton Rouge, LA

Home | Current Version | Previous Version | Graphics & Text | Print | Product List | Glossary On
Versions: 1 2 3 4 5 6 7 8 9 10 11 12 13 14 15 16 17 18 19 20 21 22 23 24 25 26 27 28 29 30 31 32 33 34 35 36 37 38 39 40 41 42 43 44 45 46 47 48 49 50
892
ASUS44 KLIX 012101
RWRLIX
NEW ORLEANS REGIONAL WEATHER ROUNDUP
NATIONAL WEATHER SERVICE NEW ORLEANS LA
400 PM CDT WED OCT 01 2014

NOTE: "FAIR" INDICATES FEW OR NO CLOUDS BELOW 12,000 FEET WITH NO
      SIGNIFICANT WEATHER AND/OR OBSTRUCTIONS TO VISIBILITY.
      SKY/WX - SKY CONDITION AND SIGNIFICANT WEATHER.
      TMP - AIR TEMPERATURE.     DP    - DEWPOINT TEMPERATURE.
      RH  - RELATIVE HUMIDITY.   PRES  - PRESSURE.
      HI  - HEAT INDEX.          WCI   - WIND CHILL INDEX.

*  THESE STATIONS ARE NOT NWS OR FAA STATIONS AND ARE NOT UNDER
   NWS QUALITY CONTROL.

LAZ038-040-048-061>063-065>067-069-012200-
SOUTHEAST LOUISIANA

CITY           SKY/WX    TMP DP  RH WIND       PRES   REMARKS
N.O. AUDUBON   NOT AVBL
N.O. INTL ARPT PTSUNNY   83  72  69 SE7       29.89S
N.O. LAKEFRONT MOSUNNY   82  72  71 SE12      29.89F
N.O. DOWNTOWN* MOCLDY    82  72  69 SE10      29.90S
SLIDELL        CLOUDY    84  73  69 SE8       29.90S
BATON ROUGE    PTSUNNY   85  72  65 SE9       29.87S
BOOTHVILLE     LGT RAIN  80  77  90 E7        29.90F
BELLE CHASSE   PTSUNNY   83  73  72 SE9       29.89F
BOGALUSA*      CLOUDY    84  72  67 S7        29.91F
GALLIANO*      NOT AVBL
NEW ROADS*     CLOUDY    86  74  67 SE8       29.86S
GONZALES*      CLOUDY    81  77  90 SE14G20   29.88R
HAMMOND*       NOT AVBL
HOUMA*         PTSUNNY  N/A N/A N/A SE9       29.88S
PORT FOURCHON* NOT AVBL

$$

MSZ070-080>082-012200-
SOUTHERN MISSISSIPPI

CITY           SKY/WX    TMP DP  RH WIND       PRES   REMARKS
MCCOMB         PTSUNNY   84  70  62 S14       29.89F
GULFPORT       CLOUDY    82  73  74 SE13      29.91F
BILOXI         CLOUDY    81  74  79 SE7       29.91F
PASCAGOULA     CLOUDY    80  72  76 S9        29.92F
STENNIS ARPT*  PTSUNNY   82  72  69 E8        29.91F

$$

COASTAL OBSERVATIONS
LAKE AND NEARSHORE STATIONS

STATION/POSITION TIME  TEMP    WIND        PRES    WAVE
                       AIR SEA DIR/SP/G            HT/PER
                 (UTC) (F)     (DEG/KT/KT) (MB)    (FT/S)
PASCAGOULA       2000   81     150/  5/ 11 1012.9
WAVELAND YACHT   2000   79     120/ 11/ 13 1012.4
GRAND ISLE       2000   80 81  120/  4/  6 1012.9
SOUTHWEST PASS   2000   81 86  140/  7/  9 1012.5
NEW CANAL        2000   85 78  130/  4/ 11 1012.5
SHELL BEACH      2000   81 76  120/ 11/ 13 1012.4

OFFSHORE STATIONS

STATION/POSITION TIME  TEMP    WIND        PRES    WAVE
                       AIR SEA DIR/SP/G            HT/PER
                 (UTC) (F)     (DEG/KT/KT) (MB)    (FT/S)
64 S DAUPHIN ISL 1953   81 83  120/  6/  8 1013.4    1/ 4

$$




USA.gov is the U.S. government's official web portal to all federal, state and local government web resources and services.